Eastsound, WA
on Wednesday, January 9, 2013

Wednesday
Previous Day Next Day
Daily Summary
 ActualAverage (KBLI)Record (KBLI)
Temperature
Mean Temperature °F 39°F  
Max Temperature 46°F 45°F 61°F (1986)
Min Temperature 37°F 33°F 16°F (1950)
Degree Days
Heating Degree Days 24 26  
Month to date heating degree days 240  
Cooling Degree Days 0 0  
Month to date cooling degree days 0  
Year to date cooling degree days 0  
Moisture
Dew Point 37°F   
Average Humidity 81    
Maximum Humidity 93    
Minimum Humidity 70    
Precipitation
Precipitation 0.01 in 0.16 in 0.92 in (1991)
Month to date precipitation 1.32  
Year to date precipitation 1.32  
Wind
Wind Speed 10 mph   
Max Wind Speed 17 mph   
Max Gust Speed 25 mph   
Visibility 10 miles   
Events Rain   

Key: T is trace of precipitation, MM is missing value
Source: NWS Daily Summary
Time(PST)TemperatureDew PointHumidity Pressure Visibility Wind DirectionWind SpeedGust SpeedPrecipitationEvents Conditions
12:15 AM 46.4°F 42.8°F 87% 29.66 in 7.0 miles SW 15.0 mph 23.0 mph N/A Rain Light Rain
12:35 AM 46.4°F 42.8°F 87% 29.67 in 7.0 miles SW 12.7 mph 25.3 mph 0.01 in Rain Light Rain
12:55 AM 46.4°F 42.8°F 87% 29.67 in 8.0 miles SSW 13.8 mph 21.9 mph 0.01 in Rain Light Rain
1:15 AM 46.4°F 41.0°F 81% 29.66 in 10.0 miles SSW 12.7 mph 23.0 mph N/A Rain Light Rain
1:35 AM 44.6°F 41.0°F 87% 29.66 in 10.0 miles SSW 16.1 mph 23.0 mph N/A   Clear
1:55 AM 44.6°F 41.0°F 87% 29.65 in 10.0 miles SSW 17.3 mph 24.2 mph N/A   Clear
2:15 AM 44.6°F 41.0°F 87% 29.66 in 10.0 miles SSW 16.1 mph 20.7 mph N/A   Clear
2:35 AM 44.6°F 41.0°F 87% 29.66 in 10.0 miles SSW 11.5 mph 19.6 mph N/A   Clear
2:55 AM 44.6°F 39.2°F 81% 29.67 in 10.0 miles SW 12.7 mph 19.6 mph N/A   Scattered Clouds
3:15 AM 44.6°F 39.2°F 81% 29.67 in 10.0 miles SW 10.4 mph 19.6 mph N/A   Mostly Cloudy
3:35 AM 44.6°F 39.2°F 81% 29.66 in 10.0 miles SSW 10.4 mph 18.4 mph N/A   Mostly Cloudy
3:55 AM 44.6°F 39.2°F 81% 29.66 in 10.0 miles SSW 9.2 mph - N/A   Scattered Clouds
4:15 AM 44.6°F 39.2°F 81% 29.65 in 10.0 miles SW 12.7 mph 16.1 mph N/A   Partly Cloudy
4:35 AM 44.6°F 39.2°F 81% 29.64 in 10.0 miles SSW 11.5 mph - N/A   Clear
4:55 AM 44.6°F 39.2°F 81% 29.62 in 10.0 miles South 12.7 mph 19.6 mph N/A   Clear
5:15 AM 44.6°F 39.2°F 81% 29.63 in 10.0 miles South 9.2 mph 17.3 mph N/A   Clear
5:35 AM 44.6°F 39.2°F 81% 29.63 in 10.0 miles South 5.8 mph - N/A   Clear
5:55 AM 44.6°F 39.2°F 81% 29.63 in 10.0 miles SSW 4.6 mph - N/A   Clear
6:35 AM 42.8°F 39.2°F 87% 29.64 in 10.0 miles SSW 10.4 mph - N/A   Scattered Clouds
6:55 AM 42.8°F 39.2°F 87% 29.64 in 10.0 miles SSW 5.8 mph - N/A   Clear
7:15 AM 41.0°F 39.2°F 93% 29.64 in 10.0 miles Calm Calm - N/A   Clear
7:35 AM 41.0°F 39.2°F 93% 29.65 in 10.0 miles SW 4.6 mph - N/A   Clear
7:55 AM 42.8°F 39.2°F 87% 29.65 in 10.0 miles South 6.9 mph - N/A   Clear
8:15 AM 41.0°F 39.2°F 93% 29.65 in 10.0 miles South 8.1 mph - N/A   Clear
8:35 AM 42.8°F 39.2°F 87% 29.66 in 10.0 miles SSW 9.2 mph - N/A   Clear
8:55 AM 42.8°F 37.4°F 81% 29.67 in 10.0 miles SSW 9.2 mph - N/A   Clear
9:15 AM 42.8°F 39.2°F 87% 29.68 in 10.0 miles SSW 12.7 mph - N/A   Clear
9:35 AM 42.8°F 37.4°F 81% 29.68 in 10.0 miles South 10.4 mph - N/A   Clear
10:15 AM 42.8°F 37.4°F 81% 29.69 in 10.0 miles SSW 8.1 mph - N/A   Clear
10:35 AM 42.8°F 37.4°F 81% 29.69 in 10.0 miles SSW 8.1 mph - N/A   Clear
10:55 AM 42.8°F 37.4°F 81% 29.69 in 10.0 miles SSW 9.2 mph - N/A   Clear
11:15 AM 42.8°F 37.4°F 81% 29.70 in 10.0 miles South 4.6 mph - N/A   Clear
11:35 AM 44.6°F 37.4°F 76% 29.69 in 10.0 miles South 5.8 mph - N/A   Clear
12:15 PM 44.6°F 37.4°F 76% 29.69 in 10.0 miles South 5.8 mph - N/A   Clear
12:35 PM 44.6°F 37.4°F 76% 29.70 in 10.0 miles South 3.5 mph - N/A   Clear
12:55 PM 44.6°F 37.4°F 76% 29.69 in 10.0 miles South 4.6 mph - N/A   Clear
1:15 PM 44.6°F 37.4°F 76% 29.70 in 10.0 miles SSW 11.5 mph - N/A   Clear
1:35 PM 44.6°F 37.4°F 76% 29.70 in 10.0 miles SSW 11.5 mph - N/A   Partly Cloudy
1:55 PM 44.6°F 37.4°F 76% 29.72 in 10.0 miles SSW 9.2 mph - N/A   Clear
2:15 PM 42.8°F 37.4°F 81% 29.73 in 10.0 miles SSW 6.9 mph - N/A   Clear
2:35 PM 42.8°F 37.4°F 81% 29.73 in 10.0 miles South 4.6 mph - N/A   Clear
2:55 PM 42.8°F 37.4°F 81% 29.74 in 10.0 miles SSW 8.1 mph - N/A   Partly Cloudy
3:15 PM 42.8°F 37.4°F 81% 29.74 in 10.0 miles South 4.6 mph - N/A   Partly Cloudy
3:35 PM 42.8°F 35.6°F 76% 29.75 in 10.0 miles SSW 6.9 mph - N/A   Clear
3:55 PM 42.8°F 35.6°F 76% 29.75 in 10.0 miles SSW 4.6 mph - N/A   Clear
4:15 PM 42.8°F 33.8°F 70% 29.76 in 10.0 miles SW 8.1 mph - N/A   Clear
4:35 PM 42.8°F 33.8°F 70% 29.76 in 10.0 miles SSW 6.9 mph - N/A   Clear
4:55 PM 41.0°F 33.8°F 76% 29.76 in 10.0 miles SSW 10.4 mph - N/A   Clear
5:15 PM 41.0°F 33.8°F 76% 29.77 in 10.0 miles South 8.1 mph - N/A   Clear
5:35 PM 41.0°F 33.8°F 76% 29.78 in 10.0 miles SSW 9.2 mph - N/A   Clear
5:55 PM 41.0°F 32.0°F 70% 29.79 in 10.0 miles South 6.9 mph - N/A   Clear
6:35 PM 41.0°F 32.0°F 70% 29.81 in 10.0 miles SSW 5.8 mph - N/A   Clear
6:55 PM 41.0°F 32.0°F 70% 29.81 in 10.0 miles South 9.2 mph - N/A   Clear
7:15 PM 39.2°F 32.0°F 75% 29.82 in 10.0 miles South 6.9 mph - N/A   Clear
7:55 PM 39.2°F 32.0°F 75% 29.83 in 10.0 miles South 6.9 mph - N/A   Clear
8:15 PM 39.2°F 32.0°F 75% 29.84 in 10.0 miles SSW 8.1 mph - N/A   Clear
8:35 PM 37.4°F 32.0°F 81% 29.85 in 10.0 miles SSW 9.2 mph - N/A   Clear
9:15 PM 39.2°F 33.8°F 81% 29.85 in 10.0 miles SSW 9.2 mph - N/A   Clear
9:35 PM 39.2°F 33.8°F 81% 29.86 in 10.0 miles SSW 10.4 mph - N/A   Clear
9:55 PM 39.2°F 33.8°F 81% 29.88 in 10.0 miles SSW 9.2 mph - N/A   Clear
10:15 PM 39.2°F 33.8°F 81% 29.89 in 10.0 miles SSW 9.2 mph - N/A   Clear
Moon Phase
Jan. 09 Jan. 11 Jan. 18 Jan. 26 Feb. 03
Sunrise:08:02 AM (PST) Moon Rise:05:48 AM (PST)1/9
Sunset:04:35 PM (PST) Moon Set:02:42 PM (PST)1/9

Copyright © 2014 The Weather Underground, Inc.